Saint Augustine, FL

6:54 AM EDT on October 01, 2016 (GMT -0400)
Saint Augustine

Weather History for KSGJ - August, 2014

Change the Weather History Date:

Wednesday, August 20, 2014

  Actual Average Record
Temperature  
Mean Temperature 86 °F -  
Max Temperature 97 °F 85 °F 100 °F (1993)
Min Temperature 75 °F 71 °F 67 °F (1990)
Cooling Degree Days 20    
Growing Degree Days 36 (Base 50)    
Moisture  
Dew Point 73 °F    
Average Humidity 69    
Maximum Humidity 90    
Minimum Humidity 41    
Precipitation  
Precipitation 0.09 in - - ()
Sea Level Pressure  
Sea Level Pressure 30.04 in    
Wind  
Wind Speed 7 mph (WSW)    
Max Wind Speed 14 mph    
Max Gust Speed 18 mph    
Visibility 10 miles    
Events Rain , Thunderstorm    
Averages and records for this station are not official NWS values.
T = Trace of Precipitation, MM = Missing Value Source: NWS Daily Summary

Daily Weather History Graph

Daily Weather History Graph

Search for Another Location

Airport or City:

Trip Planner

Search our weather history database for the weather conditions in past years. The results will help you decide how hot, cold, wet, or windy it might be!

Date:

Astronomy

Aug. 20, 2014 Rise Set
Actual Time 6:55 AM EDT 8:01 PM EDT
Civil Twilight 6:30 AM EDT 8:26 PM EDT
Nautical Twilight 6:01 AM EDT 8:55 PM EDT
Astronomical Twilight 5:30 AM EDT 9:25 PM EDT
Moon 2:42 AM EDT (8/20) 4:37 PM EDT (8/20)
Length of Visible Light 13h 55m
Length of Day
13h 05m
Waning Crescent, 21% of the Moon is Illuminated
Aug 20
Waning Crescent
Aug 25
New
Sep 2
First Quarter
Sep 8
Full
Sep 15
Last Quarter

Hourly Weather History & Observations

Time (EDT) Temp. Heat Index Dew Point Humidity Pressure Visibility Wind Dir Wind Speed Gust Speed Precip Events Conditions
12:58 AM 79.0 °F - 73.9 °F 84% 30.02 in 10.0 mi West 6.9 mph - N/A   Clear
1:58 AM 78.1 °F - 73.9 °F 87% 30.01 in 10.0 mi WSW 4.6 mph - N/A   Clear
2:58 AM 78.1 °F - 73.9 °F 87% 29.99 in 10.0 mi SW 5.8 mph - N/A   Clear
3:58 AM 77.0 °F - 73.9 °F 90% 29.98 in 10.0 mi WSW 6.9 mph - N/A   Clear
4:58 AM 77.0 °F - 73.9 °F 90% 29.99 in 10.0 mi West 6.9 mph - N/A   Clear
7:58 AM 79.0 °F - 75.0 °F 88% 30.05 in 10.0 mi West 6.9 mph - N/A   Clear
8:58 AM 82.9 °F 90.8 °F 75.9 °F 79% 30.07 in 10.0 mi WNW 5.8 mph - N/A   Clear
9:58 AM 86.0 °F 95.1 °F 75.0 °F 70% 30.08 in 10.0 mi WNW 13.8 mph - N/A   Partly Cloudy
10:58 AM 89.1 °F 98.0 °F 73.9 °F 61% 30.09 in 10.0 mi West 10.4 mph - N/A   Scattered Clouds
11:58 AM 91.0 °F 100.4 °F 73.9 °F 57% 30.08 in 10.0 mi West 12.7 mph 16.1 mph N/A   Scattered Clouds
12:58 PM 93.0 °F 101.9 °F 73.0 °F 52% 30.07 in 10.0 mi WNW 9.2 mph - N/A   Partly Cloudy
1:58 PM 93.0 °F 101.9 °F 73.0 °F 52% 30.06 in 10.0 mi WSW 9.2 mph - N/A   Scattered Clouds
2:58 PM 93.9 °F 100.8 °F 71.1 °F 47% 30.04 in 10.0 mi Variable 6.9 mph - N/A   Partly Cloudy
3:58 PM 95.0 °F 100.7 °F 69.1 °F 43% 30.02 in 10.0 mi WNW 8.1 mph - N/A   Partly Cloudy
4:58 PM 96.1 °F 101.6 °F 69.1 °F 41% 30.01 in 10.0 mi Variable 4.6 mph - N/A   Clear
5:58 PM 96.1 °F 101.6 °F 69.1 °F 41% 30.01 in 10.0 mi Variable 3.5 mph - N/A   Clear
6:58 PM 87.1 °F 95.4 °F 73.9 °F 65% 30.02 in 10.0 mi SSE 10.4 mph - N/A   Overcast
7:45 PM 86.0 °F 95.1 °F 75.2 °F 70% 30.03 in 10.0 mi South 8.1 mph - N/A Thunderstorm Mostly Cloudy
7:58 PM 86.0 °F 93.8 °F 73.9 °F 67% 30.04 in 9.0 mi WSW 4.6 mph 18.4 mph 0.00 in Rain , Thunderstorm Thunderstorms and Rain
8:58 PM 78.1 °F - 72.0 °F 81% 30.08 in 10.0 mi West 8.1 mph - 0.04 in Rain , Thunderstorm Thunderstorms and Rain
9:58 PM 75.9 °F - 71.1 °F 85% 30.07 in 10.0 mi SW 4.6 mph - 0.05 in   Partly Cloudy
10:58 PM 77.0 °F - 72.0 °F 84% 30.09 in 10.0 mi Calm Calm - N/A   Clear